Grub im Wienerwald
Wetterdaten: aktuell Sonntag, 18.04.2021 23:27
Datum Zeit Temp. A. Feuchte A. Luftdruck Regen Wind Richtung Richtung Sonnenschein UV Solar Taupunkt Windchill Windben
18.04.2021 23:27 5,3 C 89 % 1018,3 hPa 0,0 l/m 3,6 km/h N 355 0 min 0,0 UV-I 0 W/m 3,6 C 5,3 C 6,4 km/h
18.04.2021 23:24 5,3 C 89 % 1018,3 hPa 0,2 l/m 2,6 km/h N 355 0 min 0,0 UV-I 0 W/m 3,6 C 5,3 C 4,8 km/h
18.04.2021 23:21 5,3 C 89 % 1018,3 hPa 0,0 l/m 0,7 km/h N 355 0 min 0,0 UV-I 0 W/m 3,6 C 5,3 C 3,2 km/h
18.04.2021 23:18 5,3 C 88 % 1018,3 hPa 0,0 l/m 2,1 km/h N 355 0 min 0,0 UV-I 0 W/m 3,5 C 5,3 C 3,2 km/h
18.04.2021 23:15 5,3 C 88 % 1018,3 hPa 0,0 l/m 1,0 km/h N 355 0 min 0,0 UV-I 0 W/m 3,5 C 5,3 C 3,2 km/h
18.04.2021 23:12 5,3 C 88 % 1018,3 hPa 0,2 l/m 0,2 km/h N 355 0 min 0,0 UV-I 0 W/m 3,5 C 5,3 C 1,6 km/h
18.04.2021 23:09 5,3 C 88 % 1018,3 hPa 0,0 l/m 2,5 km/h N 355 0 min 0,0 UV-I 0 W/m 3,5 C 5,3 C 6,4 km/h
18.04.2021 23:06 5,4 C 88 % 1018,3 hPa 0,0 l/m 2,0 km/h N 355 0 min 0,0 UV-I 0 W/m 3,6 C 5,4 C 4,8 km/h
18.04.2021 23:03 5,4 C 88 % 1018,3 hPa 0,0 l/m 0,7 km/h N 355 0 min 0,0 UV-I 0 W/m 3,6 C 5,4 C 3,2 km/h
18.04.2021 23:00 5,4 C 87 % 1018,4 hPa 0,0 l/m 1,4 km/h N 355 0 min 0,0 UV-I 0 W/m 3,4 C 5,4 C 3,2 km/h
18.04.2021 22:57 5,4 C 87 % 1018,3 hPa 0,0 l/m 0,5 km/h N 355 0 min 0,0 UV-I 0 W/m 3,4 C 5,4 C 3,2 km/h
18.04.2021 22:54 5,4 C 87 % 1018,3 hPa 0,0 l/m 2,8 km/h N 355 0 min 0,0 UV-I 0 W/m 3,4 C 5,4 C 6,4 km/h
18.04.2021 22:51 5,4 C 87 % 1018,4 hPa 0,0 l/m 1,7 km/h N 355 0 min 0,0 UV-I 0 W/m 3,4 C 5,4 C 3,2 km/h
18.04.2021 22:48 5,4 C 87 % 1018,4 hPa 0,0 l/m 1,3 km/h N 355 0 min 0,0 UV-I 0 W/m 3,4 C 5,4 C 4,8 km/h
18.04.2021 22:45 5,4 C 87 % 1018,4 hPa 0,0 l/m 0,2 km/h N 355 0 min 0,0 UV-I 0 W/m 3,4 C 5,4 C 1,6 km/h
18.04.2021 22:42 5,4 C 87 % 1018,4 hPa 0,0 l/m 0,0 km/h N 355 0 min 0,0 UV-I 0 W/m 3,4 C 5,4 C 0,0 km/h
18.04.2021 22:39 5,4 C 87 % 1018,4 hPa 0,0 l/m 0,0 km/h N 355 0 min 0,0 UV-I 0 W/m 3,4 C 5,4 C 0,0 km/h
18.04.2021 22:36 5,4 C 87 % 1018,4 hPa 0,0 l/m 0,1 km/h N 355 0 min 0,0 UV-I 0 W/m 3,4 C 5,4 C 1,6 km/h
18.04.2021 22:33 5,5 C 86 % 1018,4 hPa 0,0 l/m 0,1 km/h N 355 0 min 0,0 UV-I 0 W/m 3,3 C 5,5 C 1,6 km/h
18.04.2021 22:30 5,4 C 86 % 1018,4 hPa 0,0 l/m 0,6 km/h N 355 0 min 0,0 UV-I 0 W/m 3,3 C 5,4 C 3,2 km/h
18.04.2021 22:27 5,5 C 86 % 1018,4 hPa 0,0 l/m 2,1 km/h N 355 0 min 0,0 UV-I 0 W/m 3,3 C 5,5 C 4,8 km/h
18.04.2021 22:24 5,5 C 86 % 1018,4 hPa 0,0 l/m 4,3 km/h N 355 0 min 0,0 UV-I 0 W/m 3,3 C 5,5 C 8,0 km/h
18.04.2021 22:21 5,5 C 86 % 1018,4 hPa 0,0 l/m 3,8 km/h N 355 0 min 0,0 UV-I 0 W/m 3,3 C 5,5 C 6,4 km/h
18.04.2021 22:18 5,5 C 86 % 1018,4 hPa 0,0 l/m 2,7 km/h N 355 0 min 0,0 UV-I 0 W/m 3,3 C 5,5 C 4,8 km/h
18.04.2021 22:15 5,5 C 86 % 1018,4 hPa 0,0 l/m 3,9 km/h N 355 0 min 0,0 UV-I 0 W/m 3,3 C 5,5 C 6,4 km/h
18.04.2021 22:12 5,5 C 86 % 1018,3 hPa 0,0 l/m 4,1 km/h N 355 0 min 0,0 UV-I 0 W/m 3,3 C 5,5 C 8,0 km/h
18.04.2021 22:09 5,5 C 86 % 1018,3 hPa 0,0 l/m 3,6 km/h N 355 0 min 0,0 UV-I 0 W/m 3,3 C 5,5 C 6,4 km/h
18.04.2021 22:06 5,4 C 85 % 1018,4 hPa 0,0 l/m 5,3 km/h N 355 0 min 0,0 UV-I 0 W/m 3,1 C 5,4 C 9,7 km/h
18.04.2021 22:03 5,4 C 85 % 1018,4 hPa 0,0 l/m 3,7 km/h N 355 0 min 0,0 UV-I 0 W/m 3,1 C 5,4 C 6,4 km/h
18.04.2021 22:00 5,4 C 85 % 1018,3 hPa 0,0 l/m 3,0 km/h N 355 0 min 0,0 UV-I 0 W/m 3,1 C 5,4 C 6,4 km/h
18.04.2021 21:57 5,4 C 85 % 1018,4 hPa 0,0 l/m 5,2 km/h N 355 0 min 0,0 UV-I 0 W/m 3,1 C 5,4 C 8,0 km/h
18.04.2021 21:54 5,4 C 85 % 1018,4 hPa 0,0 l/m 7,2 km/h N 355 0 min 0,0 UV-I 0 W/m 3,1 C 4,7 C 12,9 km/h
18.04.2021 21:51 5,4 C 85 % 1018,4 hPa 0,0 l/m 4,6 km/h N-NW 337 0 min 0,0 UV-I 0 W/m 3,1 C 5,4 C 9,7 km/h
18.04.2021 21:48 5,4 C 85 % 1018,4 hPa 0,0 l/m 3,3 km/h N-NW 329 0 min 0,0 UV-I 0 W/m 3,1 C 5,4 C 4,8 km/h
18.04.2021 21:45 5,4 C 85 % 1018,4 hPa 0,0 l/m 1,0 km/h N-NW 329 0 min 0,0 UV-I 0 W/m 3,1 C 5,4 C 4,8 km/h
18.04.2021 21:42 5,4 C 85 % 1018,4 hPa 0,0 l/m 3,5 km/h N-NW 329 0 min 0,0 UV-I 0 W/m 3,1 C 5,4 C 6,4 km/h
18.04.2021 21:39 5,4 C 84 % 1018,4 hPa 0,0 l/m 3,9 km/h N-NW 329 0 min 0,0 UV-I 0 W/m 2,9 C 5,4 C 8,0 km/h
18.04.2021 21:36 5,5 C 84 % 1018,4 hPa 0,0 l/m 3,5 km/h N-NW 329 0 min 0,0 UV-I 0 W/m 3,0 C 5,5 C 11,3 km/h
18.04.2021 21:33 5,5 C 84 % 1018,4 hPa 0,0 l/m 3,3 km/h N-NW 329 0 min 0,0 UV-I 0 W/m 3,0 C 5,5 C 6,4 km/h
18.04.2021 21:30 5,5 C 84 % 1018,4 hPa 0,0 l/m 1,4 km/h N-NW 329 0 min 0,0 UV-I 0 W/m 3,0 C 5,5 C 4,8 km/h
18.04.2021 21:27 5,5 C 84 % 1018,4 hPa 0,0 l/m 2,5 km/h N-NW 329 0 min 0,0 UV-I 0 W/m 3,0 C 5,5 C 6,4 km/h
18.04.2021 21:24 5,6 C 84 % 1018,4 hPa 0,0 l/m 1,5 km/h N-NW 329 0 min 0,0 UV-I 0 W/m 3,1 C 5,6 C 6,4 km/h
18.04.2021 21:21 5,6 C 84 % 1018,5 hPa 0,0 l/m 3,5 km/h N-NW 329 0 min 0,0 UV-I 0 W/m 3,1 C 5,6 C 8,0 km/h
18.04.2021 21:18 5,6 C 84 % 1018,4 hPa 0,0 l/m 5,1 km/h N-NW 329 0 min 0,0 UV-I 0 W/m 3,1 C 5,6 C 11,3 km/h
18.04.2021 21:15 5,6 C 83 % 1018,4 hPa 0,0 l/m 0,1 km/h N-NW 332 0 min 0,0 UV-I 0 W/m 2,9 C 5,6 C 1,6 km/h
18.04.2021 21:12 5,6 C 83 % 1018,5 hPa 0,0 l/m 0,2 km/h N-NW 332 0 min 0,0 UV-I 0 W/m 2,9 C 5,6 C 3,2 km/h
18.04.2021 21:09 5,7 C 83 % 1018,4 hPa 0,0 l/m 2,0 km/h N-NW 332 0 min 0,0 UV-I 0 W/m 3,0 C 5,7 C 6,4 km/h
18.04.2021 21:06 5,7 C 83 % 1018,4 hPa 0,0 l/m 0,5 km/h N-NW 332 0 min 0,0 UV-I 0 W/m 3,0 C 5,7 C 3,2 km/h
18.04.2021 21:03 5,7 C 83 % 1018,4 hPa 0,0 l/m 1,9 km/h N-NW 332 0 min 0,0 UV-I 0 W/m 3,0 C 5,7 C 6,4 km/h
18.04.2021 21:00 5,7 C 83 % 1018,4 hPa 0,0 l/m 0,1 km/h N-NW 332 0 min 0,0 UV-I 0 W/m 3,0 C 5,7 C 1,6 km/h
18.04.2021 20:57 5,7 C 83 % 1018,3 hPa 0,0 l/m 0,4 km/h N-NW 332 0 min 0,0 UV-I 0 W/m 3,0 C 5,7 C 3,2 km/h
18.04.2021 20:54 5,8 C 83 % 1018,3 hPa 0,0 l/m 0,0 km/h N-NW 332 0 min 0,0 UV-I 0 W/m 3,1 C 5,8 C 0,0 km/h
18.04.2021 20:51 5,8 C 82 % 1018,3 hPa 0,0 l/m 2,2 km/h N-NW 332 0 min 0,0 UV-I 0 W/m 3,0 C 5,8 C 6,4 km/h
18.04.2021 20:48 5,8 C 82 % 1018,2 hPa 0,0 l/m 0,5 km/h N-NW 332 0 min 0,0 UV-I 0 W/m 3,0 C 5,8 C 4,8 km/h
18.04.2021 20:45 5,8 C 83 % 1018,2 hPa 0,0 l/m 1,3 km/h N-NW 332 0 min 0,0 UV-I 0 W/m 3,1 C 5,8 C 4,8 km/h
18.04.2021 20:42 5,8 C 82 % 1018,2 hPa 0,0 l/m 4,8 km/h N-NW 332 0 min 0,0 UV-I 0 W/m 3,0 C 5,8 C 8,0 km/h
18.04.2021 20:39 5,9 C 82 % 1018,2 hPa 0,0 l/m 1,2 km/h N-NW 332 0 min 0,0 UV-I 0 W/m 3,1 C 5,9 C 4,8 km/h
18.04.2021 20:36 5,9 C 82 % 1018,2 hPa 0,0 l/m 4,6 km/h N-NW 332 0 min 0,0 UV-I 0 W/m 3,1 C 5,9 C 9,7 km/h
18.04.2021 20:33 5,9 C 82 % 1018,2 hPa 0,0 l/m 3,3 km/h N-NW 333 0 min 0,0 UV-I 0 W/m 3,1 C 5,9 C 6,4 km/h
18.04.2021 20:30 5,9 C 82 % 1018,2 hPa 0,0 l/m 2,0 km/h N-NW 333 0 min 0,0 UV-I 0 W/m 3,1 C 5,9 C 4,8 km/h
18.04.2021 20:27 6,0 C 82 % 1018,2 hPa 0,0 l/m 2,1 km/h N-NW 333 0 min 0,0 UV-I 0 W/m 3,2 C 6,0 C 6,4 km/h
18.04.2021 20:24 6,0 C 82 % 1018,2 hPa 0,0 l/m 1,3 km/h N-NW 333 0 min 0,0 UV-I 0 W/m 3,2 C 6,0 C 4,8 km/h
18.04.2021 20:21 6,1 C 82 % 1018,2 hPa 0,0 l/m 1,8 km/h N-NW 333 0 min 0,0 UV-I 0 W/m 3,3 C 6,1 C 6,4 km/h
18.04.2021 20:18 6,1 C 82 % 1018,1 hPa 0,0 l/m 0,8 km/h N-NW 333 0 min 0,0 UV-I 0 W/m 3,3 C 6,1 C 4,8 km/h
18.04.2021 20:15 6,1 C 81 % 1018,0 hPa 0,0 l/m 4,4 km/h N-NW 333 0 min 0,0 UV-I 0 W/m 3,1 C 6,1 C 9,7 km/h
18.04.2021 20:12 6,1 C 81 % 1018,0 hPa 0,0 l/m 4,7 km/h N-NW 333 0 min 0,0 UV-I 0 W/m 3,1 C 6,1 C 11,3 km/h
18.04.2021 20:09 6,1 C 81 % 1018,1 hPa 0,0 l/m 5,0 km/h NW 321 0 min 0,0 UV-I 0 W/m 3,1 C 6,1 C 9,7 km/h
18.04.2021 20:06 6,2 C 81 % 1018,1 hPa 0,0 l/m 2,9 km/h NW 321 0 min 0,0 UV-I 0 W/m 3,2 C 6,2 C 8,0 km/h
18.04.2021 20:03 6,2 C 81 % 1018,0 hPa 0,0 l/m 4,0 km/h NW 321 0 min 0,0 UV-I 0 W/m 3,2 C 6,2 C 8,0 km/h
18.04.2021 20:00 6,2 C 81 % 1018,0 hPa 0,0 l/m 0,8 km/h NW 321 0 min 0,0 UV-I 0 W/m 3,2 C 6,2 C 4,8 km/h
18.04.2021 19:57 6,2 C 81 % 1018,0 hPa 0,0 l/m 0,0 km/h NW 321 0 min 0,0 UV-I 0 W/m 3,2 C 6,2 C 1,6 km/h
18.04.2021 19:54 6,3 C 81 % 1017,9 hPa 0,0 l/m 3,2 km/h NW 321 0 min 0,0 UV-I 0 W/m 3,3 C 6,3 C 8,0 km/h
18.04.2021 19:51 6,3 C 81 % 1017,9 hPa 0,0 l/m 2,4 km/h NW 321 0 min 0,0 UV-I 0 W/m 3,3 C 6,3 C 4,8 km/h
18.04.2021 19:48 6,3 C 80 % 1017,9 hPa 0,0 l/m 3,2 km/h NW 321 0 min 0,0 UV-I 0 W/m 3,1 C 6,3 C 8,0 km/h
18.04.2021 19:45 6,3 C 80 % 1017,9 hPa 0,0 l/m 3,5 km/h NW 321 0 min 0,0 UV-I 0 W/m 3,1 C 6,3 C 8,0 km/h
18.04.2021 19:42 6,3 C 80 % 1017,9 hPa 0,0 l/m 2,1 km/h NW 321 0 min 0,0 UV-I 0 W/m 3,1 C 6,3 C 4,8 km/h
18.04.2021 19:39 6,4 C 80 % 1017,9 hPa 0,0 l/m 5,6 km/h NW 321 0 min 0,0 UV-I 5 W/m 3,2 C 6,4 C 11,3 km/h
18.04.2021 19:36 6,4 C 80 % 1017,8 hPa 0,0 l/m 2,6 km/h NW 323 0 min 0,0 UV-I 5 W/m 3,2 C 6,4 C 6,4 km/h
18.04.2021 19:33 6,4 C 80 % 1017,9 hPa 0,0 l/m 3,1 km/h NW 323 0 min 0,0 UV-I 5 W/m 3,2 C 6,4 C 6,4 km/h
18.04.2021 19:30 6,4 C 80 % 1017,9 hPa 0,0 l/m 4,8 km/h NW 323 0 min 0,0 UV-I 7 W/m 3,2 C 6,4 C 8,0 km/h
18.04.2021 19:27 6,5 C 80 % 1017,8 hPa 0,0 l/m 3,0 km/h NW 323 0 min 0,0 UV-I 7 W/m 3,3 C 6,5 C 6,4 km/h
18.04.2021 19:24 6,5 C 80 % 1017,8 hPa 0,0 l/m 3,9 km/h NW 323 0 min 0,0 UV-I 9 W/m 3,3 C 6,5 C 8,0 km/h
18.04.2021 19:21 6,6 C 79 % 1017,7 hPa 0,0 l/m 4,5 km/h NW 323 0 min 0,0 UV-I 9 W/m 3,2 C 6,6 C 8,0 km/h
18.04.2021 19:18 6,6 C 79 % 1017,7 hPa 0,0 l/m 5,1 km/h NW 323 0 min 0,0 UV-I 9 W/m 3,2 C 6,6 C 8,0 km/h
18.04.2021 19:15 6,6 C 79 % 1017,7 hPa 0,0 l/m 6,6 km/h NW 323 0 min 0,0 UV-I 11 W/m 3,2 C 6,5 C 12,9 km/h
18.04.2021 19:12 6,6 C 79 % 1017,7 hPa 0,0 l/m 7,5 km/h NW 311 0 min 0,0 UV-I 11 W/m 3,2 C 5,7 C 14,5 km/h
18.04.2021 19:09 6,7 C 79 % 1017,8 hPa 0,0 l/m 6,3 km/h NW 314 0 min 0,0 UV-I 12 W/m 3,3 C 6,7 C 9,7 km/h
18.04.2021 19:06 6,7 C 79 % 1017,7 hPa 0,0 l/m 7,5 km/h NW 313 0 min 0,0 UV-I 12 W/m 3,3 C 5,8 C 11,3 km/h
18.04.2021 19:03 6,7 C 79 % 1017,7 hPa 0,0 l/m 6,6 km/h NW 312 0 min 0,0 UV-I 12 W/m 3,3 C 6,6 C 12,9 km/h
18.04.2021 19:00 6,8 C 79 % 1017,6 hPa 0,0 l/m 5,4 km/h NW 313 0 min 0,0 UV-I 14 W/m 3,4 C 6,8 C 8,0 km/h
18.04.2021 18:57 6,8 C 79 % 1017,6 hPa 0,0 l/m 4,4 km/h NW 313 0 min 0,0 UV-I 14 W/m 3,4 C 6,8 C 8,0 km/h
_ Min-Zeit 06:18 17:39 17:12 - 06:03 - - - - - 02:09 01:00 06:15
Minimum _ 3,2 C 76 % 1017,3 hPa - 0,0 km/h - - - - - 1,0 C 2,3 C 0,0 km/h
_ Max-Zeit 16:12 07:42 00:09 23:12 15:57 - - 00:00 14:21 15:27 15:51 16:54 16:00
Maximum _ 7,7 C 93 % 1018,9 hPa 0,2 l/m 10,8 km/h
NW
- - 0 min 1,8 UV-I 227 W/m 4,2 C 7,7 C 22,5 km/h
N
Durchschnitt _ 4,9 C 84 % 1018,0 hPa #0,4 l/m 4,6 km/h N-NW - #0 min. 1,2 UV-I 88 W/m 2,5 C 4,7 C 8,8 km/h
Schulla EDV